Bellingham, WA
on Sunday, January 20, 2013

Sunday
Previous Day Next Day
Daily Summary
 ActualAverageRecord
Temperature
Mean Temperature °F 40°F  
Max Temperature 43°F 46°F 61°F (1981)
Min Temperature 24°F 33°F 13°F (1954)
Degree Days
Heating Degree Days 32 25  
Month to date heating degree days 523  
Cooling Degree Days 0 0  
Month to date cooling degree days 0  
Year to date cooling degree days 0  
Moisture
Dew Point 30°F   
Average Humidity 96    
Maximum Humidity 100    
Minimum Humidity 80    
Precipitation
Precipitation 0.00 in 0.15 in 0.78 in (1972)
Month to date precipitation 3.09  
Year to date precipitation 3.09  
Wind
Wind Speed 0 mph   
Max Wind Speed 5 mph   
Max Gust Speed mph   
Visibility 2 miles   
Events Fog   

Key: T is trace of precipitation, MM is missing value
Source: NWS Daily Summary
Time(PST)TemperatureDew PointHumidity Pressure Visibility Wind DirectionWind SpeedGust SpeedPrecipitationEvents Conditions
12:04 AM 30.2°F 28.4°F 93% 30.39 in 0.8 miles Calm Calm - N/A   Mist
12:11 AM 30.2°F 26.6°F 86% 30.38 in 0.5 miles Calm Calm - N/A Fog Light Freezing Fog
12:53 AM 28.9°F 27.0°F 92% 30.41 in 0.8 miles Calm Calm - N/A   Mist
1:03 AM 28.4°F 28.4°F 100% 30.38 in 1.2 miles Calm Calm - N/A   Scattered Clouds
1:11 AM 28.4°F 28.4°F 100% 30.39 in 2.0 miles Calm Calm - N/A   Partly Cloudy
1:24 AM 28.4°F 28.4°F 100% 30.39 in 1.0 miles Calm Calm - N/A   Clear
1:29 AM 28.4°F 28.4°F 100% 30.39 in 0.5 miles Calm Calm - N/A Fog Light Freezing Fog
1:48 AM 28.4°F 28.4°F 100% 30.39 in 1.0 miles Calm Calm - N/A   Clear
1:53 AM 28.0°F 27.0°F 96% 30.43 in 2.5 miles Calm Calm - N/A   Clear
2:06 AM 28.4°F 26.6°F 93% 30.40 in 0.8 miles Calm Calm - N/A   Clear
2:20 AM 26.6°F 26.6°F 100% 30.40 in 2.0 miles Calm Calm - N/A   Clear
2:28 AM 26.6°F 26.6°F 100% 30.40 in 4.0 miles Calm Calm - N/A   Clear
2:53 AM 28.0°F 27.0°F 96% 30.43 in 4.0 miles Calm Calm - N/A   Clear
3:53 AM 27.0°F 27.0°F 100% 30.42 in 5.0 miles Calm Calm - N/A   Clear
4:07 AM 26.6°F 26.6°F 100% 30.39 in 1.8 miles Calm Calm - N/A   Clear
4:22 AM 26.6°F 26.6°F 100% 30.39 in 3.0 miles Calm Calm - N/A   Clear
4:50 AM 26.6°F 24.8°F 93% 30.38 in 5.0 miles Calm Calm - N/A   Scattered Clouds
4:53 AM 26.1°F 26.1°F 100% 30.42 in 5.0 miles Calm Calm - N/A   Scattered Clouds
5:53 AM 27.0°F 26.1°F 96% 30.41 in 4.0 miles Calm Calm - N/A   Clear
6:53 AM 26.1°F 24.1°F 92% 30.41 in 8.0 miles Calm Calm - N/A   Clear
7:39 AM 26.6°F 24.8°F 93% 30.38 in 4.0 miles Calm Calm - N/A   Scattered Clouds
7:44 AM 24.8°F 24.8°F 100% 30.38 in 0.8 miles Calm Calm - N/A   Mostly Cloudy
7:53 AM 26.1°F 25.0°F 96% 30.42 in 0.2 miles Calm Calm - N/A Fog Light Freezing Fog
8:00 AM 26.6°F 24.8°F 93% 30.38 in 0.2 miles Calm Calm - N/A Fog Light Freezing Fog
8:30 AM 28.4°F 26.6°F 93% 30.38 in 0.5 miles Calm Calm - N/A Fog Light Freezing Fog
8:53 AM 28.9°F 28.0°F 96% 30.43 in 2.0 miles Calm Calm - N/A   Partly Cloudy
9:00 AM 28.4°F 28.4°F 100% 30.39 in 1.0 miles Calm Calm - N/A   Partly Cloudy
9:08 AM 28.4°F 28.4°F 100% 30.40 in 0.2 miles Calm Calm - N/A Fog Light Freezing Fog
9:36 AM 30.2°F 30.2°F 100% 30.40 in 0.2 miles Calm Calm - N/A   Mist
9:39 AM 30.2°F 30.2°F 100% 30.40 in 1.0 miles Calm Calm - N/A   Mist
9:46 AM 30.2°F 30.2°F 100% 30.40 in 1.0 miles Calm Calm - N/A   Mist
9:53 AM 30.9°F 30.9°F 100% 30.43 in 0.5 miles Calm Calm - N/A Fog Light Freezing Fog
10:03 AM 30.2°F 30.2°F 100% 30.39 in 0.5 miles Calm Calm - N/A Fog Light Freezing Fog
10:13 AM 30.2°F 30.2°F 100% 30.40 in 0.2 miles Calm Calm - N/A Fog Light Freezing Fog
10:27 AM 32.0°F 32.0°F 100% 30.39 in 0.2 miles Calm Calm - N/A Fog Fog
10:46 AM 33.8°F 33.8°F 100% 30.39 in 0.8 miles Calm Calm - N/A   Scattered Clouds
10:53 AM 33.1°F 33.1°F 100% 30.43 in 0.8 miles Calm Calm - N/A   Scattered Clouds
10:55 AM 33.8°F 33.8°F 100% 30.39 in 1.0 miles North 3.5 mph - N/A   Overcast
11:01 AM 33.8°F 33.8°F 100% 30.39 in 2.0 miles Calm Calm - N/A   Scattered Clouds
11:10 AM 35.6°F 33.8°F 93% 30.39 in 4.0 miles Calm Calm - N/A   Scattered Clouds
11:53 AM 37.0°F 35.1°F 93% 30.41 in 7.0 miles North 3.5 mph - N/A   Partly Cloudy
12:53 PM 39.9°F 36.0°F 86% 30.38 in 10.0 miles Calm Calm - N/A   Clear
1:53 PM 43.0°F 37.0°F 80% 30.36 in 10.0 miles Calm Calm - N/A   Clear
2:53 PM 43.0°F 37.0°F 80% 30.35 in 10.0 miles Calm Calm - N/A   Clear
3:53 PM 42.1°F 37.0°F 82% 30.34 in 10.0 miles West 3.5 mph - N/A   Clear
4:53 PM 37.0°F 36.0°F 96% 30.34 in 4.0 miles West 4.6 mph - N/A   Clear
5:17 PM 35.6°F 35.6°F 100% 30.30 in 3.0 miles West 4.6 mph - N/A   Scattered Clouds
5:24 PM 35.6°F 33.8°F 93% 30.30 in 0.5 miles WNW 3.5 mph - N/A Fog Fog
5:36 PM 35.6°F 33.8°F 93% 30.30 in 0.5 miles West 3.5 mph - N/A Fog Fog
5:53 PM 34.0°F 34.0°F 100% 30.33 in 0.2 miles WNW 4.6 mph - N/A Fog Fog
6:53 PM 33.1°F 33.1°F 100% 30.32 in 0.2 miles Calm Calm - N/A Fog Fog
7:53 PM 34.0°F 33.1°F 96% 30.32 in 0.2 miles Calm Calm - N/A Fog Fog
8:53 PM 33.1°F 33.1°F 100% 30.32 in 0.1 miles Calm Calm - N/A Fog Fog
9:23 PM 33.8°F 33.8°F 100% 30.30 in 0.2 miles Calm Calm - N/A Fog Fog
9:32 PM 33.8°F 33.8°F 100% 30.30 in 0.2 miles Calm Calm - N/A Fog Fog
9:53 PM 33.1°F 32.0°F 96% 30.33 in 0.1 miles Calm Calm - N/A Fog Fog
10:53 PM 33.1°F 33.1°F 100% 30.32 in 0.2 miles North 4.6 mph - N/A Fog Fog
11:37 PM 32.0°F 32.0°F 100% 30.29 in 0.2 miles Calm Calm - N/A Fog Fog
11:53 PM 32.0°F 30.9°F 96% 30.32 in 0.2 miles North 3.5 mph - N/A Fog Fog
Moon Phase
Jan. 20 Jan. 26 Feb. 03 Feb. 10 Feb. 17
Sunrise:07:53 AM (PST) Moon Rise:11:55 AM (PST)1/20
Sunset:04:49 PM (PST) Moon Set:02:28 AM (PST)1/20

Copyright © 2014 The Weather Underground, Inc.